Content
SEND FEEDBACK

Daily
Averages
Monthly
Summary
United States of America

TOMBSTONE, ARIZONA


Home > North America > United States > Arizona
Elevation: 4392 feet     Latitude: 31 43N     Longitude: 110 04W

WEATHER
 
SELECT A DAY
Number of Records: 122,106;   Date Range: 1/3/95 - 8/12/14
 
SHARE

PRINT THIS DATA

[ ← Previous Day ]
WEATHER ALMANAC - SEPTEMBER 21, 2013
[ Next Day → ]
[ °C ]   °F
Weather ElementAverageHighLow
Temperature73.6 °F82.9 °F (1:56 pm)60.1 °F (4:56 am)
Dewpoint53.7 °F59 °F (9:56 am)48.9 °F (4:56 pm)
Humidity52.8 %87 % (5:56 am)32 % (2:56 pm)
Barometer29.85 in29.94 in (4:56 am)29.75 in (11:56 pm)
Wind Speed7.5 mph15 mph (10:56 am)
Wind Gust21.9 mph (11:56 am)
Weather ElementAverage
Visibility10 mi
Wind DirectionSE (130.4 °)

Weather ElementTotal
Precipitation---
Cooling Degree Days6.5 (Base 65)
Growing Degree Days21.5 (Base 50)
Averaged from 23 records on September 21, 2013
WEATHER CONDITIONS BREAKOUT
WIND DIRECTION BREAKOUT
WEATHER BY HOUR - SEPTEMBER 21, 2013
[ °C ]   °F
Local TimeTemperatureDewpointHumidityBarometerVisibilityWind DirectionWind SpeedGust SpeedPrecipitationEventsConditions
1:56 AM66.9 °F55.0 °F66 %29.90 in10.0 miSSE (160°)11.5 mphClear
2:56 AM64.0 °F55.9 °F75 %29.91 in10.0 miSSE (150°)6.9 mphClear
3:56 AM63.0 °F55.9 °F78 %29.92 in10.0 miCalmClear
4:56 AM60.1 °F55.9 °F86 %29.94 in10.0 miCalmClear
5:56 AM61.0 °F57.0 °F87 %29.93 in10.0 miESE (110°)3.5 mphClear
6:56 AM63.0 °F57.0 °F81 %29.94 in10.0 miEast (100°)4.6 mphClear
7:56 AM68.0 °F57.9 °F70 %29.94 in10.0 miENE (70°)4.6 mphClear
8:56 AM72.0 °F57.9 °F61 %29.94 in10.0 miEast (80°)5.8 mphClear
9:56 AM75.9 °F59.0 °F56 %29.93 in10.0 miESE (110°)10.4 mphClear
10:56 AM79.0 °F55.9 °F45 %29.91 in10.0 miSE (140°)15.0 mphClear
11:56 AM81.0 °F53.1 °F38 %29.89 in10.0 miSE (140°)15.0 mph21.9 mphClear
12:56 PM82.0 °F54.0 °F38 %29.86 in10.0 miESE (120°)11.5 mph19.6 mphClear
1:56 PM82.9 °F52.0 °F34 %29.83 in10.0 miESE (110°)10.4 mph16.1 mphClear
2:56 PM82.9 °F50.0 °F32 %29.81 in10.0 miEast (90°)10.4 mphClear
3:56 PM82.9 °F51.1 °F33 %29.78 in10.0 miSSE (150°)9.2 mphPartly Cloudy
4:56 PM81.0 °F48.9 °F33 %29.78 in10.0 miSSE (150°)9.2 mphClear
5:56 PM79.0 °F50.0 °F36 %29.78 in10.0 miSSE (150°)5.8 mphClear
6:56 PM77.0 °F48.9 °F37 %29.77 in10.0 miSouth (190°)8.1 mphScattered Clouds
7:56 PM75.9 °F50.0 °F40 %29.77 in10.0 miSouth (190°)5.8 mphMostly Cloudy
8:56 PM75.0 °F51.1 °F43 %29.77 in10.0 miSW (220°)6.9 mphMostly Cloudy
9:56 PM75.9 °F53.1 °F45 %29.76 in10.0 miSSW (210°)5.8 mphOvercast
10:56 PM73.0 °F53.1 °F49 %29.76 in10.0 miSE (140°)6.9 mphOvercast
11:56 PM72.0 °F53.1 °F51 %29.75 in10.0 miSW (220°)5.8 mphScattered Clouds
Hourly data recorded from KFHU, located miles away from Tombstone, Arizona







STORIES FROM OUR PARTNERS